DELTA 1 DEB, 7056

Orbit data source: Space-Track

DELTA 1 DEB, 7056 is space debris in SSO originally from a launch on Tue, 06 Nov 1973 UTC launched from the Air Force Western Test Range (AFWTR). Debris objects in space refer to the collection of defunct objects orbiting the Earth. Examples of debris include non-operational satellites, rocket bodies, and fragments generated from explosions, collisions, or faulty payload assembly.

Loading next visibility...
Identifier
7056, 1973-086AY
Orbit
SSO
Country
Flag of USUS
Related business
Manufacturer
Unknown
Mission
Spacecraft
Bus & Motor
Unknown
Mass
Unknown
Launch date (UTC)
1973-11-06 (52 years ago)
Launch vehicle
Unknown
Launch site
Air Force Western Test Range (AFWTR)
Object type
Payload
Rocket body
Debris
Shape & HBR
Unknown shape, 0.2 m
Radar Cross Section
Small (<0.1 m²)

Expand to show TLE details & history
Last TLE update: 13 hours ago

TLE from 13 hours ago
0 DELTA 1 DEB
1 07056U 73086AY  26034.49272066 -.00000033  00000-0  12206-3 0  9994
2 07056 102.7299  38.9479 0087165  51.0982 101.1410 12.24176370333765
Epoch: 2026-02-03T11:49Z
TLE epoch observation values (Epoch: 2026-02-03T11:49:31.065Z)
Latitude
26.10774°
Longitude
-85.77909°
Altitude
1,591.187 km
Speed
7.07 km/s
True Right ascension
15h 01m 05s
True Declination
25° 59' 11"
Sunlit
Object was in daylight at epoch
Visualization orbit readout
Latitude
Unknown
Longitude
Unknown
Altitude
Unknown
Speed
Unknown
Apparent Right ascension
Unknown
Apparent Declination
Unknown
Sunlit
N/A
Visualization observer readout
Local Sidereal Time
03:13:58
Azimuth
Unknown
Elevation
Unknown
Doppler factor
Unknown
Orbital elements
Apogee altitude
1,641.34 km
Perigee altitude
1,502.744 km
Semi-major axis
7,950.179 km
Eccentricity
0.00872
Inclination
102.7299°
RAAN
38.9479°
Arg. of periapsis
51.0982°
True anomaly
102.11891°
Mean anomaly
101.141°
Eccentric anomaly
101.63017°
Mean motion
3.06181 °/min
Orbital period
117.58 mins
BSTAR
0.00012206
Loading maneuver chart data...
Computing Atmospheric mass density...
Loading historical data...
Loading historical data...
Loading historical data...
Loading historical data...
Loading historical data...
Loading historical data...
Loading historical data...

Documentation

Showing up to 5 results
|